Roanoke, VA

7:46 PM EST on November 21, 2019 (GMT -0500)
Roanoke Regional-Woodrum

Weather History for KROA - September, 2019

Change the Weather History Date:

Saturday, September 21, 2019

  Actual Average Record
Temperature  
Mean Temperature 74 °F 66 °F  
Max Temperature 88 °F 77 °F 95 °F (1931)
Min Temperature 60 °F 56 °F 36 °F (1956)
Degree Days  
Heating Degree Days 0 2  
Month to date heating degree days 1 17  
Since 1 July heating degree days 1 18  
Cooling Degree Days 9 3  
Month to date cooling degree days 219 118  
Year to date cooling degree days 1582 1165  
Growing Degree Days 24 (Base 50)    
Moisture  
Dew Point 61 °F    
Average Humidity 65    
Maximum Humidity 90    
Minimum Humidity 40    
Precipitation  
Precipitation 0.00 in 0.13 in 3.80 in (1979)
Month to date precipitation 0.80 2.85  
Year to date precipitation 31.50 30.98  
Snow  
Snow 0.00 in - - ()
Month to date snowfall 0.0  
Since 1 July snowfall T  
Since 1 September snowfall 0.0  
Snow Depth 0.00 in    
Sea Level Pressure  
Sea Level Pressure 30.25 in    
Wind  
Wind Speed 2 mph (North)    
Max Wind Speed 9 mph    
Max Gust Speed 12 mph    
Visibility 10 miles    
Events      
T = Trace of Precipitation, MM = Missing Value Source: NWS Daily Summary

Daily Weather History Graph

Daily Weather History Graph

Search for Another Location

Airport or City:

Astronomy

Sep. 21, 2019 Rise Set
Actual Time 7:06 AM EDT 7:18 PM EDT
Civil Twilight 6:40 AM EDT 7:44 PM EDT
Nautical Twilight 6:10 AM EDT 8:15 PM EDT
Astronomical Twilight 5:39 AM EDT 8:46 PM EDT
Moon No Moon Rise 2:03 PM EDT (9/21)
Length of Visible Light 13h 04m
Length of Day
12h 12m
Waning Gibbous, 55% of the Moon is Illuminated
Sep 21
Waning Gibbous
Sep 21
Last Quarter
Sep 28
New
Oct 5
First Quarter
Oct 13
Full

Hourly Weather History & Observations

Time (EDT) Temp. Heat Index Dew Point Humidity Pressure Visibility Wind Dir Wind Speed Gust Speed Precip Events Conditions
12:54 AM 64.0 °F - 57.0 °F 78% 30.27 in 10.0 mi Calm Calm - N/A   Clear
1:54 AM 64.0 °F - 57.9 °F 80% 30.27 in 10.0 mi Calm Calm - N/A   Clear
2:54 AM 62.1 °F - 57.0 °F 84% 30.27 in 10.0 mi NNW 3.5 mph - N/A   Clear
3:54 AM 63.0 °F - 57.0 °F 81% 30.26 in 10.0 mi Calm Calm - N/A   Clear
4:54 AM 63.0 °F - 57.9 °F 84% 30.26 in 10.0 mi Calm Calm - N/A   Clear
5:54 AM 61.0 °F - 57.0 °F 87% 30.27 in 10.0 mi Calm Calm - N/A   Clear
6:54 AM 62.1 °F - 57.9 °F 86% 30.29 in 10.0 mi NNE 4.6 mph - N/A   Scattered Clouds
7:54 AM 63.0 °F - 57.9 °F 84% 30.30 in 10.0 mi NNE 3.5 mph - N/A   Partly Cloudy
8:54 AM 69.1 °F - 60.1 °F 73% 30.31 in 10.0 mi North 4.6 mph - N/A   Scattered Clouds
9:54 AM 72.0 °F - 61.0 °F 68% 30.30 in 10.0 mi West 5.8 mph - N/A   Scattered Clouds
10:54 AM 78.1 °F - 62.1 °F 58% 30.30 in 10.0 mi North 3.5 mph - N/A   Mostly Cloudy
11:54 AM 80.1 °F 81.5 °F 63.0 °F 56% 30.29 in 10.0 mi SW 3.5 mph - N/A   Mostly Cloudy
12:54 PM 82.9 °F 84.4 °F 64.0 °F 53% 30.26 in 10.0 mi Calm Calm - N/A   Scattered Clouds
1:54 PM 84.0 °F 84.9 °F 63.0 °F 49% 30.24 in 10.0 mi NE 3.5 mph - N/A   Mostly Cloudy
2:54 PM 87.1 °F 87.8 °F 63.0 °F 44% 30.21 in 10.0 mi Calm Calm - N/A   Scattered Clouds
3:54 PM 87.1 °F 87.0 °F 61.0 °F 41% 30.19 in 10.0 mi Calm Calm - N/A   Mostly Cloudy
4:54 PM 86.0 °F 87.3 °F 64.0 °F 48% 30.18 in 10.0 mi NE 8.1 mph - N/A   Mostly Cloudy
5:54 PM 84.0 °F 84.9 °F 63.0 °F 49% 30.18 in 10.0 mi ESE 5.8 mph - N/A   Mostly Cloudy
6:54 PM 82.9 °F 84.4 °F 64.0 °F 53% 30.19 in 10.0 mi WSW 3.5 mph - N/A   Mostly Cloudy
7:54 PM 79.0 °F - 64.9 °F 62% 30.19 in 10.0 mi Calm Calm - N/A   Partly Cloudy
8:54 PM 78.1 °F - 66.0 °F 66% 30.19 in 10.0 mi NNW 4.6 mph - N/A   Mostly Cloudy
9:54 PM 75.0 °F - 66.0 °F 73% 30.22 in 10.0 mi Calm Calm - N/A   Clear
10:54 PM 72.0 °F - 66.0 °F 81% 30.22 in 10.0 mi Calm Calm - N/A   Clear
11:54 PM 72.0 °F - 66.0 °F 81% 30.22 in 10.0 mi Calm Calm - N/A   Clear